Simultaneous Nadir Overpasses (SNOs) Predictions

Prediction of SNOs between GOES-15 and TERRA Satellite Orbit:

Table of predicted SNOs for the next 14.0 days since TLE Epoch: 10/26/2024
Index Date Time (GOES-15) GOES-15 Lat,Lon TERRA Lat,Lon Distance(km) Time Diff (sec)
1 10/26/2024 05:18:22 -0.27, 61.28 -1.14, 65.28 455.33 80
2 10/26/2024 17:38:14 0.27, 61.42 0.05, 60.46 109.43 80
3 10/28/2024 17:17:32 0.27, 61.44 1.00, 64.81 382.58 80
4 10/29/2024 05:37:18 -0.27, 61.32 -0.01, 59.99 150.01 80
5 10/31/2024 05:21:54 -0.27, 61.34 -0.89, 64.35 342.38 80
6 10/31/2024 17:41:45 0.27, 61.47 -0.16, 59.53 221.25 80
7 11/02/2024 17:21:01 0.26, 61.50 0.77, 63.88 270.27 80
8 11/03/2024 05:40:46 -0.26, 61.39 0.25, 59.08 263.60 80
9 11/05/2024 05:25:21 -0.26, 61.43 -0.67, 63.44 227.89 80
10 11/05/2024 17:45:13 0.25, 61.56 -0.35, 58.61 334.74 80
11 11/07/2024 17:24:26 0.24, 61.61 0.51, 62.98 155.84 80
12 11/08/2024 05:44:12 -0.24, 61.51 0.44, 58.17 379.47 80
